Joplin, MO

12:25 AM CDT on August 24, 2019 (GMT -0500)
Joplin Regional

Weather History for KJLN - July, 2019

Change the Weather History Date:

Monday, July 15, 2019

  Actual Average Record
Temperature  
Mean Temperature 75 °F 80 °F  
Max Temperature 81 °F 91 °F 105 °F (1954)
Min Temperature 69 °F 70 °F 53 °F (1967)
Degree Days  
Heating Degree Days 0 0  
Month to date heating degree days 0 0  
Since 1 June heating degree days 1 5  
Since 1 July heating degree days 0 0  
Cooling Degree Days 10 15  
Month to date cooling degree days 207 221  
Year to date cooling degree days 635 719  
Since 1 June cooling degree days 482 539  
Growing Degree Days 25 (Base 50)    
Moisture  
Dew Point 68 °F    
Average Humidity 84    
Maximum Humidity 93    
Minimum Humidity 74    
Precipitation  
Precipitation 0.01 in 0.12 in 1.20 in (1989)
Month to date precipitation 3.71 2.06  
Year to date precipitation 40.35 25.87  
Sea Level Pressure  
Sea Level Pressure 29.91 in    
Wind  
Wind Speed 5 mph (NE)    
Max Wind Speed 12 mph    
Max Gust Speed 17 mph    
Visibility 10 miles    
Events Rain    
T = Trace of Precipitation, MM = Missing Value Source: NWS Daily Summary

Daily Weather History Graph

Daily Weather History Graph

Search for Another Location

Airport or City:

Astronomy

Jul. 15, 2019 Rise Set
Actual Time 6:09 AM CDT 8:37 PM CDT
Civil Twilight 5:39 AM CDT 9:07 PM CDT
Nautical Twilight 5:02 AM CDT 9:45 PM CDT
Astronomical Twilight 4:21 AM CDT 10:26 PM CDT
Moon 7:55 PM CDT (7/15) 4:58 AM CDT (7/15)
Length of Visible Light 15h 28m
Length of Day
14h 28m
Waxing Gibbous, 99% of the Moon is Illuminated
Jul 15
Waxing Gibbous
Jul 16
Full
Jul 24
Last Quarter
Jul 31
New
Aug 7
First Quarter

Hourly Weather History & Observations

Time (CDT) Temp. Heat Index Dew Point Humidity Pressure Visibility Wind Dir Wind Speed Gust Speed Precip Events Conditions
12:33 AM 71.1 °F - 66.0 °F 84% 30.02 in 10.0 mi East 6.9 mph - N/A   Mostly Cloudy
12:53 AM 71.1 °F - 66.0 °F 84% 29.98 in 10.0 mi ENE 6.9 mph - N/A   Overcast
1:53 AM 72.0 °F - 66.0 °F 81% 29.97 in 10.0 mi East 10.4 mph - N/A   Overcast
2:53 AM 72.0 °F - 64.9 °F 78% 29.95 in 10.0 mi East 8.1 mph - N/A   Overcast
3:53 AM 71.1 °F - 64.9 °F 81% 29.94 in 10.0 mi East 5.8 mph - N/A   Overcast
4:53 AM 71.1 °F - 64.9 °F 81% 29.94 in 10.0 mi NE 5.8 mph - N/A   Overcast
5:53 AM 70.0 °F - 64.9 °F 84% 29.94 in 10.0 mi NE 4.6 mph - N/A   Overcast
6:53 AM 70.0 °F - 64.9 °F 84% 29.93 in 10.0 mi NE 4.6 mph - N/A   Mostly Cloudy
7:53 AM 70.0 °F - 66.0 °F 87% 29.94 in 10.0 mi NE 5.8 mph - N/A   Mostly Cloudy
8:05 AM 70.0 °F - 66.0 °F 87% 29.97 in 10.0 mi NNE 8.1 mph - N/A   Mostly Cloudy
8:53 AM 71.1 °F - 66.9 °F 87% 29.94 in 10.0 mi ENE 4.6 mph - N/A   Overcast
9:53 AM 73.0 °F - 68.0 °F 84% 29.94 in 10.0 mi NE 4.6 mph - N/A   Overcast
10:53 AM 73.0 °F - 68.0 °F 84% 29.93 in 10.0 mi NNE 4.6 mph - N/A   Overcast
11:00 AM 73.0 °F - 66.9 °F 81% 29.95 in 10.0 mi NNE 4.6 mph - N/A   Overcast
11:53 AM 73.0 °F - 70.0 °F 90% 29.92 in 8.0 mi ENE 6.9 mph - 0.00 in   Overcast
12:53 PM 75.9 °F - 70.0 °F 82% 29.91 in 10.0 mi Variable 4.6 mph - N/A   Mostly Cloudy
1:53 PM 79.0 °F - 70.0 °F 74% 29.89 in 10.0 mi Variable 4.6 mph - N/A   Overcast
2:35 PM 78.1 °F - 70.0 °F 76% 29.91 in 10.0 mi NNE 9.2 mph - 0.00 in   Overcast
2:50 PM 73.4 °F - 69.8 °F 88% 29.91 in 4.0 mi ENE 6.9 mph - 0.01 in Rain Rain
2:53 PM 73.0 °F - 70.0 °F 90% 29.88 in 6.0 mi NE 3.5 mph - 0.01 in Rain Light Rain
3:21 PM 75.9 °F - 72.0 °F 87% 29.90 in 7.0 mi NNE 6.9 mph - 0.00 in   Mostly Cloudy
3:53 PM 75.9 °F - 70.0 °F 82% 29.87 in 10.0 mi North 11.5 mph - 0.00 in   Mostly Cloudy
4:53 PM 77.0 °F - 71.1 °F 82% 29.86 in 10.0 mi North 6.9 mph - 0.00 in   Scattered Clouds
5:53 PM 80.1 °F 83.6 °F 71.1 °F 74% 29.84 in 10.0 mi North 9.2 mph - N/A   Scattered Clouds
6:53 PM 79.0 °F - 70.0 °F 74% 29.83 in 10.0 mi North 6.9 mph - N/A   Clear
7:53 PM 75.9 °F - 69.1 °F 79% 29.85 in 10.0 mi North 4.6 mph - N/A   Partly Cloudy
8:53 PM 75.0 °F - 69.1 °F 82% 29.85 in 10.0 mi NNE 4.6 mph - N/A   Overcast
9:53 PM 73.9 °F - 69.1 °F 85% 29.86 in 10.0 mi NE 3.5 mph - N/A   Overcast
10:53 PM 73.0 °F - 70.0 °F 90% 29.88 in 10.0 mi Calm Calm - N/A   Overcast
11:53 PM 72.0 °F - 70.0 °F 93% 29.90 in 10.0 mi NNW 3.5 mph - N/A   Overcast